Weather History for Baton Rouge, LA

Change the Weather History Date:

Saturday, April 6, 2013

  Actual Average Record
Temperature  
Mean Temperature 59 °F 66 °F  
Max Temperature 74 °F 77 °F 87 °F (1986)
Min Temperature 44 °F 54 °F 39 °F (1971)
Degree Days  
Heating Degree Days 6 3  
Month to date heating degree days 34 18  
Since 1 July heating degree days 1482 1520  
Cooling Degree Days 0 3  
Month to date cooling degree days 0 18  
Year to date cooling degree days 44 107  
Growing Degree Days 8 (Base 50)    
Moisture  
Dew Point 48 °F    
Average Humidity 67    
Maximum Humidity 93    
Minimum Humidity 41    
Precipitation  
Precipitation 0.00 in 0.15 in 4.19 in (1983)
Month to date precipitation 1.25 0.92  
Year to date precipitation 26.20 16.09  
Snow  
Snow 0.00 in - - ()
Month to date snowfall 0.0  
Since 1 July snowfall 0.0  
Snow Depth 0.00 in    
Sea Level Pressure  
Sea Level Pressure 30.10 in    
Wind  
Wind Speed 7 mph (SSE)    
Max Wind Speed 17 mph    
Max Gust Speed 24 mph    
Visibility 10 miles    
Events      
T = Trace of Precipitation, MM = Missing Value Source: NWS Daily Summary

Daily Weather History Graph

Daily Weather History Graph

Search for Another Location

Airport:

Trip Planner

Search our weather history database for the weather conditions in past years. The results will help you decide how hot, cold, wet, or windy it might be!

Date:

Astronomy

Apr. 06, 2013 Rise Set
Actual Time 6:47 AM CDT 7:26 PM CDT
Civil Twilight 6:23 AM CDT 7:51 PM CDT
Nautical Twilight 5:54 AM CDT 8:19 PM CDT
Astronomical Twilight 5:25 AM CDT 8:49 PM CDT
Moon 4:16 AM CDT (4/6) 4:08 PM CDT (4/6)
Length of Visible Light 13h 28m
Length of Day
12h 39m
Waning Crescent, 15% of the Moon is Illuminated
Apr 6
Waning Crescent
Apr 10
New
Apr 18
First Quarter
Apr 25
Full
May 2
Last Quarter

Hourly Weather History & Observations

Time (CDT) Temp. Windchill Dew Point Humidity Pressure Visibility Wind Dir Wind Speed Gust Speed Precip Events Conditions
12:53 AM 48.0 °F - 46.0 °F 93% 30.14 in 10.0 mi Calm Calm - N/A   Clear
1:53 AM 46.0 °F 43.9 °F 45.0 °F 96% 30.11 in 10.0 mi East 4.6 mph - N/A   Clear
2:53 AM 46.9 °F - 45.0 °F 93% 30.12 in 10.0 mi Calm Calm - N/A   Clear
3:53 AM 46.9 °F - 45.0 °F 93% 30.11 in 10.0 mi Calm Calm - N/A   Clear
4:53 AM 46.0 °F - 44.1 °F 93% 30.11 in 10.0 mi Calm Calm - N/A   Clear
5:53 AM 45.0 °F - 43.0 °F 93% 30.12 in 10.0 mi Calm Calm - N/A   Clear
6:53 AM 44.1 °F 42.5 °F 42.1 °F 93% 30.12 in 10.0 mi ENE 3.5 mph - N/A   Clear
7:53 AM 48.9 °F - 46.0 °F 90% 30.13 in 10.0 mi East 4.6 mph - N/A   Clear
8:53 AM 55.9 °F - 48.9 °F 77% 30.13 in 10.0 mi ESE 9.2 mph - N/A   Clear
9:53 AM 64.0 °F - 50.0 °F 60% 30.14 in 10.0 mi SE 8.1 mph - N/A   Clear
10:53 AM 68.0 °F - 46.9 °F 47% 30.14 in 10.0 mi South 11.5 mph 20.7 mph N/A   Clear
11:53 AM 70.0 °F - 46.9 °F 44% 30.14 in 10.0 mi SE 13.8 mph 18.4 mph N/A   Clear
12:53 PM 72.0 °F - 46.0 °F 40% 30.14 in 10.0 mi South 13.8 mph 19.6 mph N/A   Clear
1:53 PM 73.0 °F - 48.9 °F 42% 30.12 in 10.0 mi South 16.1 mph - N/A   Clear
2:53 PM 72.0 °F - 50.0 °F 46% 30.09 in 10.0 mi South 12.7 mph - N/A   Clear
3:53 PM 73.0 °F - 51.1 °F 46% 30.07 in 10.0 mi SSE 12.7 mph - N/A   Clear
4:53 PM 73.0 °F - 52.0 °F 48% 30.04 in 10.0 mi South 6.9 mph 21.9 mph N/A   Clear
5:53 PM 70.0 °F - 51.1 °F 51% 30.05 in 10.0 mi SSW 10.4 mph - N/A   Clear
6:53 PM 68.0 °F - 51.1 °F 55% 30.04 in 10.0 mi South 11.5 mph - N/A   Clear
7:53 PM 64.9 °F - 52.0 °F 63% 30.04 in 10.0 mi South 6.9 mph - N/A   Clear
8:53 PM 63.0 °F - 52.0 °F 67% 30.05 in 10.0 mi South 6.9 mph - N/A   Clear
9:53 PM 61.0 °F - 52.0 °F 72% 30.06 in 10.0 mi SSE 3.5 mph - N/A   Clear
10:53 PM 60.1 °F - 53.1 °F 78% 30.07 in 10.0 mi South 4.6 mph - N/A   Partly Cloudy
11:53 PM 61.0 °F - 54.0 °F 78% 30.07 in 10.0 mi SE 5.8 mph - N/A   Overcast